Location: Unspecified
(0.0000°N, 0.0000°E)
Time: 11:20:57
(UTC+02:00)

NATO 3D Rocket - Visible Passes

Search period start: 18 June 2018 00:00
Search period end: 28 June 2018 00:00
Orbit: 670 x 2296 km, 21.5° (Epoch: 17 June)

Date Brightness Start Highest point End Pass type
(mag) Time Alt. Az. Time Alt. Az. Time Alt. Az.
18 Jun 6.2 05:59:37 24° S 06:00:26 24° S 06:09:30 10° SE visible
18 Jun 6.0 22:46:25 10° NNW 22:47:04 12° NNW 22:47:04 12° NNW visible
19 Jun 6.6 05:06:11 18° SSE 05:06:11 18° SSE 05:09:55 10° SE visible
19 Jun 6.5 07:01:45 12° SW 07:09:01 24° S 07:18:44 10° SE visible
19 Jun 5.5 21:50:01 10° NNW 21:52:29 14° NNE 21:53:33 13° NNE visible
20 Jun 6.2 06:08:17 20° S 06:10:12 21° S 06:18:27 10° SE visible
20 Jun 5.8 20:53:08 10° NNW 20:55:04 12° N 20:56:53 10° NNE visible
20 Jun 6.0 22:54:45 10° NW 22:55:34 14° NW 22:55:34 14° NW visible
21 Jun 6.6 05:14:49 16° SSE 05:14:49 16° SSE 05:18:26 10° SE visible
21 Jun 6.5 07:10:36 10° SW 07:18:39 25° SSE 07:28:31 10° ESE visible
21 Jun 5.0 21:57:55 10° NW 22:01:57 23° NNE 22:02:05 23° NNE visible
22 Jun 6.3 06:16:52 18° SSW 06:19:57 21° S 06:27:55 10° SE visible
22 Jun 5.5 21:00:41 10° NNW 21:04:41 19° NNE 21:08:11 10° ENE visible
22 Jun 6.1 23:03:27 10° WNW 23:04:10 14° NW 23:04:10 14° NW visible
23 Jun 6.5 05:23:24 16° SSE 05:23:24 16° SSE 05:27:28 10° SE visible
23 Jun 6.5 07:19:46 10° SW 07:28:06 28° SSE 07:38:31 10° ESE visible
23 Jun 4.4 22:06:17 10° NW 22:10:42 38° N 22:10:42 38° N visible
24 Jun 6.2 06:25:27 17° SSW 06:29:33 22° SSE 06:37:50 10° ESE visible
24 Jun 4.9 21:08:48 10° NW 21:14:12 30° NNE 21:17:15 17° ENE visible
24 Jun 6.3 23:12:29 10° WNW 23:12:48 12° WNW 23:12:48 12° WNW visible
25 Jun 6.4 05:31:58 17° SSE 05:31:58 17° SSE 05:37:07 10° SE visible
25 Jun 6.3 07:28:40 10° SW 07:37:18 34° SSE 07:48:27 10° E visible
25 Jun 4.1 22:15:00 10° WNW 22:19:22 51° NW 22:19:22 51° NW visible
26 Jun 6.1 06:34:01 17° SSW 06:38:57 26° SSE 06:47:55 10° ESE visible
26 Jun 4.1 21:17:13 10° NW 21:23:35 52° NNE 21:25:57 30° E visible
27 Jun 6.2 05:40:33 19° SSE 05:40:50 19° SSE 05:47:15 10° ESE visible
27 Jun 6.0 07:37:27 10° SW 07:46:16 43° SSE 07:58:07 10° E visible
27 Jun 4.9 20:19:06 10° NW 20:26:19 41° NNE 20:31:35 10° E visible
27 Jun 4.6 22:24:02 10° WNW 22:28:05 40° W 22:28:05 40° W visible
